GW0416 Weather Reports


time (UTC)temp
C
wind
direction
speed
KPH
gust
KPH
rain 1hr
cm
rain 24hr
cm
rain mn
cm
humidity
%
barometer
mb
20260503013034 17 36 8.0 12.9 0.00 0.00 0.00 38 1015.6
20260503011535 17 22 4.8 12.9 0.00 0.00 0.00 39 1015.9
20260503010036 17 350 9.7 16.1 0.00 0.00 0.00 39 1015.9
20260503004554 17 9 4.8 8.0 0.00 0.00 0.00 38 1015.9
20260503003032 17 330 8.0 16.1 0.00 0.00 0.00 38 1016.2
20260503001530 17 350 11.3 16.1 0.00 0.00 0.00 38 1016.3
20260503000043 18 28 3.2 11.3 0.00 0.00 0.00 36 1016.3
20260502234532 18 336 4.8 17.7 0.00 0.00 0.00 36 1016.4
20260502233029 18 5 8.0 16.1 0.00 0.00 0.00 35 1016.5
20260502231533 17 0 1.6 16.1 0.00 0.00 0.00 39 1016.8
20260502230032 17 314 9.7 16.1 0.00 0.00 0.00 39 1017.0
20260502224532 17 350 14.5 19.3 0.00 0.00 0.00 38 1017.2
20260502223031 18 36 8.0 19.3 0.00 0.00 0.00 37 1017.3
20260502221530 17 330 8.0 19.3 0.00 0.00 0.00 39 1017.5
20260502220033 17 264 1.6 19.3 0.00 0.00 0.00 39 1017.8
20260502214528 17 5 11.3 20.9 0.00 0.00 0.00 40 1018.1
20260502213039 17 76 8.0 22.5 0.00 0.00 0.00 38 1018.1
20260502211536 17 34 4.8 17.7 0.00 0.00 0.00 40 1018.2
20260502210032 16 288 8.0 24.1 0.00 0.00 0.00 41 1018.6
20260502204530 17 36 12.9 27.4 0.00 0.00 0.00 40 1018.7
20260502203030 16 63 8.0 24.1 0.00 0.00 0.00 41 1018.7
20260502201533 16 360 9.7 24.1 0.00 0.00 0.00 42 1018.8
20260502200034 15 50 11.3 24.1 0.00 0.00 0.00 44 1019.1
20260502194536 15 42 14.5 27.4 0.00 0.00 0.00 45 1019.4
20260502193039 15 31 14.5 30.6 0.00 0.00 0.00 45 1019.4
20260502191532 15 340 16.1 27.4 0.00 0.00 0.00 45 1019.5
20260502190042 15 5 19.3 32.2 0.00 0.00 0.00 45 1019.7
20260502184530 15 37 17.7 30.6 0.00 0.00 0.00 44 1019.6
20260502183030 15 30 12.9 25.7 0.00 0.00 0.00 46 1019.8
20260502181537 15 5 16.1 29.0 0.00 0.00 0.00 46 1019.8
20260502163038 15 34 24.1 35.4 0.00 0.00 0.00 45 1019.9
20260502161531 15 38 25.7 40.2 0.00 0.00 0.00 46 1020.0
20260502151555 14 45 22.5 33.8 0.00 0.00 0.00 46 1019.5
20260502123035 7 33 19.3 24.1 0.00 0.00 0.00 62 1018.6
20260502121533 6 30 19.3 24.1 0.00 0.00 0.00 63 1018.5
20260502114531 6 15 19.3 27.4 0.00 0.00 0.00 62 1018.2
20260502113040 7 9 19.3 30.6 0.00 0.00 0.00 58 1018.0
20260502111528 8 17 25.7 33.8 0.00 0.00 0.00 58 1017.6
20260502110035 7 25 19.3 27.4 0.00 0.00 0.00 56 1017.4
20260502104531 8 16 20.9 29.0 0.00 0.00 0.00 53 1017.3
20260502103030 9 43 19.3 29.0 0.00 0.00 0.00 51 1016.9
20260502101530 9 51 22.5 33.8 0.00 0.00 0.00 51 1016.6
20260502091530 9 17 16.1 20.9 0.00 0.00 0.00 48 1016.2
20260502071531 11 348 11.3 16.1 0.00 0.00 0.00 37 1015.4
20260502070044 10 360 8.0 14.5 0.00 0.00 0.00 40 1015.5
20260502064530 10 342 9.7 16.1 0.00 0.00 0.00 39 1015.5
20260502063040 11 5 12.9 17.7 0.00 0.00 0.00 37 1015.4
20260502061532 11 5 14.5 19.3 0.00 0.00 0.00 37 1015.3
20260502060031 11 26 12.9 16.1 0.00 0.00 0.00 37 1015.2
20260502054535 13 355 16.1 19.3 0.00 0.00 0.00 34 1015.3
20260502053031 13 346 14.5 19.3 0.00 0.00 0.00 34 1015.2
20260502051530 12 323 8.0 12.9 0.00 0.00 0.00 35 1015.2
20260502050037 10 346 6.4 12.9 0.00 0.00 0.00 36 1015.2
20260502044530 12 312 11.3 16.1 0.00 0.00 0.00 34 1015.1
20260502043031 11 302 6.4 12.9 0.00 0.00 0.00 34 1015.1
20260502041531 12 314 8.0 12.9 0.00 0.00 0.00 32 1015.1
20260502040030 14 315 6.4 16.1 0.00 0.00 0.00 28 1015.0
20260502034528 15 337 9.7 17.7 0.00 0.00 0.00 27 1015.0
20260502033031 15 309 11.3 17.7 0.00 0.00 0.00 26 1015.0
20260502031532 15 339 12.9 17.7 0.00 0.00 0.00 26 1014.8
20260502030031 17 298 8.0 14.5 0.00 0.00 0.00 21 1014.6
20260502024532 18 300 6.4 16.1 0.00 0.00 0.00 21 1014.3
20260502023030 20 319 8.0 19.3 0.00 0.00 0.00 20 1014.2
20260502021528 20 236 9.7 16.1 0.00 0.00 0.00 21 1014.2
20260502020032 20 337 0.0 4.8 0.00 0.00 0.00 23 1014.2
20260502014535 21 0 0.0 0.0 0.00 0.00 0.00 22 1014.2